Погода в Херви Бэй

Австралия     25°17′24″S   152°51′16″E
темп.,
°C
ветер,
м/с
пор.,
м/с
влажн.,
%
обл.,
%
осадки,
мм/ч
давл.,
гПа
погр.,
м
14 июня, пн
пн1401:00+16юз336297 0.0 1017103
04:00+16юз3259100 0.0 1016119
07:00+16ююв336196 0.0 1016136
10:00+18юв3362100 0.0 1017173
13:00+19ссв327976 0.0 1015454
16:00+19св117998 0.2 1015193
19:00+20св467999 0.5 1016393
22:00+19св5782100 1.8 1017431
15 июня, вт
вт1501:00+20с458535 1.6 1016468
04:00+18зсз228930 1.9 1015197
07:00+17юз22917 0.1 1017109
10:00+19юз228698 0.1 1017208
13:00+19св32851 0.4 1016238
16:00+20с33800 0.9 1015143
19:00+21св33770 0.9 101724
22:00+21ю11804 0.9 101811
16 июня, ср
ср1601:00+19ю228378 0.0 101874
04:00+17ююз22862 0.0 101895
07:00+17ю32855 0.0 1020103
10:00+19ююв22798 0.0 1020165
13:00+20св22765 0.0 1018168
16:00+21ссв337299 0.0 1017112
19:00+21св578211 0.0 1018234
22:00+21св588479 0.0 1018302
17 июня, чт
чт1701:00+20сз4583100 0.6 1018159
04:00+20с8978100 0.8 1017581
07:00+19ссз477875 0.0 1018499
10:00+20ссз477560 0.1 1018522
13:00+20с588327 0.1 1015394
16:00+21ссз698491 0.8 1014243
19:00+20сз5885100 0.6 1015170
22:00+19зюз4589100 0.8 1015184
18 июня, пт
пт1801:00+18ююз5683100 0.0 1014205
04:00+16ююз577242 0.0 1014189
07:00+14юз576577 0.0 1016198
10:00+18юз57455 0.0 1016477
13:00+21зюз46415 0.0 1013454
16:00+21з58451 0.0 1013206
19:00+17юз68495 0.0 1015241
22:00+16юз56525 0.0 1015153